User: anonymous   Login
Location: Caualo
(45.5667°N, 10.8667°E)
Time: 03:00:30
(UTC+00:00)
Language:

BREEZE-M DEB (TANK) - Orbit

View from above orbital plane
View from above orbital plane
View from above satellite
View from above satellite

Ground track
Ground track

The orbit data is extracted from the following two-line orbital elements,

1 37604U 11021C   20221.32029577  .00001857  00000-0  32198-3 0  9994
2 37604  49.2045 183.9148 6032227  96.9448 330.9169  3.99884231132231
Epoch (UTC): 08 August 2020 07:41:13
Eccentricity: 0.6032227
inclination: 49.2045°
perigee height: 274 km
apogee height: 20502 km
right ascension of ascending node: 183.9148°
argument of perigee: 96.9448°
revolutions per day: 3.99884231
mean anomaly at epoch: 330.9169°
orbit number at epoch: 13223

The dashed part of the orbit path shows where the satellite is in the earth's shadow,  

DLR